Hourly Weather Rudnica

Today, 20 April, Tuesday

Time Temperature Precipitation Wind Pressure Humidity
00:00 +5°C° 0 mm 2 mps 748 mmHg 90%
01:00 +5°C° 0 mm 2 mps 748 mmHg 92%
02:00 +4°C° 0 mm 2 mps 747 mmHg 94%
03:00 +5°C° 0 mm 2 mps 747 mmHg 93%
04:00 +5°C° 0 mm 2 mps 747 mmHg 93%
05:00 +5°C° 0 mm 2 mps 747 mmHg 93%
06:00 +6°C° 0 mm 2 mps 747 mmHg 91%
07:00 +6°C° 0 mm 2 mps 747 mmHg 89%
08:00 +7°C° 0 mm 2 mps 747 mmHg 86%
09:00 +8°C° 0.2 mm 2 mps 746 mmHg 82%
10:00 +8°C° 0.2 mm 2 mps 746 mmHg 78%
11:00 +9°C° 0.2 mm 3 mps 746 mmHg 74%
12:00 +9°C° 0.2 mm 3 mps 746 mmHg 71%
13:00 +10°C° 0.2 mm 3 mps 745 mmHg 67%
14:00 +11°C° 0.2 mm 3 mps 745 mmHg 63%
15:00 +10°C° 0.1 mm 3 mps 745 mmHg 65%
16:00 +10°C° 0.1 mm 3 mps 744 mmHg 66%
17:00 +9°C° 0.1 mm 3 mps 744 mmHg 67%
18:00 +8°C° 0 mm 3 mps 744 mmHg 72%
19:00 +7°C° 0 mm 2 mps 744 mmHg 77%
20:00 +6°C° 0 mm 2 mps 744 mmHg 82%
21:00 +6°C° 0 mm 2 mps 744 mmHg 85%
22:00 +5°C° 0 mm 2 mps 744 mmHg 88%
23:00 +6°C° 0 mm 1 mps 744 mmHg 91%

Tomorrow, 21 April, Wednesday

Time Temperature Precipitation Wind Pressure Humidity
00:00 +4°C° 0 mm 2 mps 744 mmHg 92%
01:00 +4°C° 0 mm 2 mps 744 mmHg 93%
02:00 +4°C° 0 mm 2 mps 744 mmHg 94%
03:00 +5°C° 0 mm 1 mps 744 mmHg 95%
04:00 +4°C° 0 mm 1 mps 744 mmHg 95%
05:00 +4°C° 0 mm 1 mps 744 mmHg 95%
06:00 +5°C° 0 mm 1 mps 744 mmHg 91%
07:00 +6°C° 0 mm 1 mps 745 mmHg 86%
08:00 +7°C° 0 mm 1 mps 745 mmHg 82%
09:00 +9°C° 0 mm 1 mps 745 mmHg 75%
10:00 +9°C° 0 mm 2 mps 744 mmHg 68%
11:00 +12°C° 0 mm 2 mps 744 mmHg 60%
12:00 +12°C° 0.1 mm 2 mps 744 mmHg 59%
13:00 +13°C° 0.1 mm 2 mps 744 mmHg 58%
14:00 +13°C° 0.1 mm 2 mps 744 mmHg 57%
15:00 +13°C° 0.2 mm 2 mps 744 mmHg 59%
16:00 +13°C° 0.2 mm 2 mps 744 mmHg 60%
17:00 +13°C° 0.2 mm 2 mps 744 mmHg 61%
18:00 +12°C° 0.1 mm 2 mps 744 mmHg 68%
19:00 +10°C° 0.1 mm 2 mps 744 mmHg 75%
20:00 +8°C° 0.1 mm 2 mps 744 mmHg 82%
21:00 +8°C° 0 mm 2 mps 744 mmHg 83%
22:00 +8°C° 0 mm 2 mps 744 mmHg 84%
23:00 +8°C° 0 mm 2 mps 744 mmHg 85%

Day after tomorrow, 22 April, Thursday

Time Temperature Precipitation Wind Pressure Humidity
00:00 +8°C° 0 mm 2 mps 744 mmHg 88%
01:00 +7°C° 0 mm 2 mps 744 mmHg 90%
02:00 +7°C° 0 mm 2 mps 744 mmHg 93%
03:00 +7°C° 0 mm 3 mps 745 mmHg 94%
04:00 +5°C° 0 mm 3 mps 745 mmHg 95%
05:00 +5°C° 0 mm 3 mps 745 mmHg 95%
06:00 +7°C° 0 mm 3 mps 745 mmHg 89%
07:00 +9°C° 0 mm 3 mps 745 mmHg 83%
08:00 +10°C° 0 mm 4 mps 746 mmHg 76%
09:00 +12°C° 0.1 mm 4 mps 746 mmHg 67%
10:00 +13°C° 0.1 mm 4 mps 746 mmHg 57%
11:00 +15°C° 0.1 mm 4 mps 746 mmHg 48%
12:00 +14°C° 0.2 mm 4 mps 746 mmHg 54%
13:00 +14°C° 0.2 mm 4 mps 746 mmHg 60%
14:00 +13°C° 0.2 mm 4 mps 746 mmHg 66%
15:00 +13°C° 0.2 mm 4 mps 746 mmHg 66%
16:00 +13°C° 0.2 mm 3 mps 746 mmHg 66%
17:00 +13°C° 0.2 mm 3 mps 745 mmHg 67%
18:00 +12°C° 0.3 mm 3 mps 745 mmHg 74%
19:00 +10°C° 0.3 mm 3 mps 746 mmHg 82%
20:00 +9°C° 0.3 mm 3 mps 746 mmHg 89%
21:00 +8°C° 1.3 mm 3 mps 746 mmHg 90%
22:00 +7°C° 1.3 mm 3 mps 746 mmHg 91%
23:00 +6°C° 1.3 mm 4 mps 746 mmHg 92%

23 April, Friday

Time Temperature Precipitation Wind Pressure Humidity
00:00 +5°C° 0.4 mm 3 mps 747 mmHg 90%
01:00 +4°C° 0.4 mm 3 mps 747 mmHg 89%
02:00 +5°C° 0.4 mm 2 mps 747 mmHg 87%
03:00 +5°C° 0 mm 2 mps 747 mmHg 87%
04:00 +4°C° 0 mm 2 mps 747 mmHg 88%
05:00 +3°C° 0 mm 3 mps 747 mmHg 88%
06:00 +4°C° 0 mm 3 mps 747 mmHg 84%
07:00 +4°C° 0 mm 3 mps 748 mmHg 81%
08:00 +4°C° 0 mm 3 mps 748 mmHg 77%
09:00 +5°C° 0 mm 4 mps 748 mmHg 68%
10:00 +7°C° 0 mm 4 mps 748 mmHg 60%
11:00 +8°C° 0 mm 4 mps 748 mmHg 52%
12:00 +8°C° 0.1 mm 4 mps 748 mmHg 48%
13:00 +8°C° 0.1 mm 5 mps 748 mmHg 44%
14:00 +9°C° 0.1 mm 5 mps 748 mmHg 40%
15:00 +8°C° 0.1 mm 5 mps 748 mmHg 45%
16:00 +8°C° 0.1 mm 4 mps 748 mmHg 51%
17:00 +7°C° 0.1 mm 4 mps 748 mmHg 56%
18:00 +6°C° 0.1 mm 4 mps 748 mmHg 63%
19:00 +4°C° 0.1 mm 3 mps 748 mmHg 69%
20:00 +4°C° 0.1 mm 2 mps 748 mmHg 76%
21:00 +3°C° 0 mm 2 mps 748 mmHg 78%
22:00 +3°C° 0 mm 2 mps 748 mmHg 80%
23:00 +2°C° 0 mm 2 mps 748 mmHg 83%

24 April, Saturday

Time Temperature Precipitation Wind Pressure Humidity
00:00 +2°C° 0 mm 2 mps 748 mmHg 85%
01:00 +2°C° 0 mm 2 mps 748 mmHg 86%
02:00 +2°C° 0 mm 2 mps 748 mmHg 88%
03:00 +2°C° 0.7 mm 2 mps 748 mmHg 91%
04:00 0°C° 0.7 mm 3 mps 748 mmHg 93%
05:00 0°C° 0.7 mm 3 mps 748 mmHg 96%
06:00 0°C° 0.2 mm 4 mps 749 mmHg 88%
07:00 0°C° 0.2 mm 4 mps 749 mmHg 80%
08:00 +1°C° 0.2 mm 4 mps 749 mmHg 72%
09:00 +3°C° 0 mm 4 mps 749 mmHg 66%
10:00 +3°C° 0 mm 5 mps 749 mmHg 59%
11:00 +5°C° 0 mm 5 mps 749 mmHg 52%
12:00 +6°C° 0.1 mm 5 mps 749 mmHg 51%
13:00 +5°C° 0.1 mm 6 mps 749 mmHg 49%
14:00 +7°C° 0.1 mm 6 mps 749 mmHg 48%
15:00 +7°C° 0.2 mm 6 mps 749 mmHg 50%
16:00 +7°C° 0.2 mm 5 mps 749 mmHg 53%
17:00 +6°C° 0.2 mm 5 mps 749 mmHg 56%
18:00 +5°C° 0.1 mm 4 mps 749 mmHg 64%
19:00 +4°C° 0.1 mm 3 mps 749 mmHg 72%
20:00 +3°C° 0.1 mm 2 mps 749 mmHg 80%
21:00 +3°C° 0 mm 2 mps 749 mmHg 81%
22:00 +3°C° 0 mm 2 mps 748 mmHg 83%
23:00 +2°C° 0 mm 2 mps 748 mmHg 84%

25 April, Sunday

Time Temperature Precipitation Wind Pressure Humidity
00:00 +2°C° 0 mm 2 mps 748 mmHg 87%
01:00 +2°C° 0 mm 2 mps 748 mmHg 91%
02:00 +2°C° 0 mm 2 mps 748 mmHg 94%
03:00 +2°C° 0.5 mm 2 mps 748 mmHg 95%
04:00 0°C° 0.5 mm 3 mps 748 mmHg 96%
05:00 0°C° 0.5 mm 3 mps 748 mmHg 97%
06:00 +1°C° 0 mm 3 mps 748 mmHg 92%
07:00 +1°C° 0 mm 3 mps 748 mmHg 86%
08:00 0°C° 0 mm 4 mps 748 mmHg 80%
09:00 +1°C° 0 mm 4 mps 748 mmHg 73%
10:00 +3°C° 0 mm 3 mps 748 mmHg 65%
11:00 +4°C° 0 mm 3 mps 748 mmHg 57%
12:00 +4°C° 0.1 mm 3 mps 748 mmHg 56%
13:00 +5°C° 0.1 mm 3 mps 748 mmHg 55%
14:00 +5°C° 0.1 mm 3 mps 748 mmHg 54%
15:00 +5°C° 0.1 mm 3 mps 748 mmHg 53%
16:00 +5°C° 0.1 mm 3 mps 748 mmHg 53%
17:00 +7°C° 0.1 mm 2 mps 747 mmHg 52%
18:00 +5°C° 0 mm 2 mps 747 mmHg 58%
19:00 +4°C° 0 mm 2 mps 747 mmHg 64%
20:00 +3°C° 0 mm 1 mps 747 mmHg 71%
21:00 +2°C° 0 mm 2 mps 747 mmHg 74%
22:00 +2°C° 0 mm 2 mps 747 mmHg 78%
23:00 +1°C° 0 mm 2 mps 747 mmHg 81%
Show more